Time,TemperatureF,DewpointF,PressureIn,WindDirection,WindDirectionDegrees,WindSpeedMPH,WindSpeedGustMPH,Humidity,HourlyPrecipIn,Conditions,Clouds,dailyrainin,SoftwareType,DateUTC
2013-01-11 00:02:00,35.1,31.1,29.35,ENE,68,2.0,4.0,85,-99.99,,,0.00,meteohub,2013-01-11 05:02:00,
2013-01-11 00:03:00,35.1,31.1,29.35,ENE,68,3.0,4.0,85,-99.99,,,0.00,meteohub,2013-01-11 05:03:00,
2013-01-11 00:04:00,35.1,31.1,29.35,East,90,3.0,4.0,85,-99.99,,,0.00,meteohub,2013-01-11 05:04:00,
2013-01-11 00:05:00,35.1,31.1,29.35,East,90,3.0,4.0,85,-99.99,,,0.00,meteohub,2013-01-11 05:05:00,
2013-01-11 00:10:00,35.1,31.1,29.35,East,90,2.0,4.0,85,-99.99,,,0.00,meteohub,2013-01-11 05:10:00,
2013-01-11 00:15:00,35.1,30.7,29.35,East,90,1.0,4.0,84,-99.99,,,0.00,meteohub,2013-01-11 05:15:00,
2013-01-11 00:20:00,35.2,30.9,29.35,East,90,4.0,4.0,84,-99.99,,,0.00,meteohub,2013-01-11 05:20:00,
2013-01-11 00:25:00,35.2,30.9,29.35,East,90,2.0,4.0,84,-99.99,,,0.00,meteohub,2013-01-11 05:25:00,
2013-01-11 00:30:00,35.2,30.6,29.35,ENE,68,3.0,5.0,83,-99.99,,,0.00,meteohub,2013-01-11 05:30:00,
2013-01-11 00:36:00,35.2,30.6,29.35,East,90,4.0,5.0,83,-99.99,,,0.00,meteohub,2013-01-11 05:36:00,
2013-01-11 00:41:00,35.4,30.7,29.35,East,90,3.0,5.0,83,-99.99,,,0.00,meteohub,2013-01-11 05:41:00,
2013-01-11 00:46:00,35.4,30.6,29.35,ENE,68,3.0,5.0,82,-99.99,,,0.00,meteohub,2013-01-11 05:46:00,
2013-01-11 00:51:00,35.4,30.6,29.35,East,90,3.0,5.0,82,-99.99,,,0.00,meteohub,2013-01-11 05:51:00,
2013-01-11 00:56:00,35.4,30.6,29.35,East,90,1.0,5.0,82,-99.99,,,0.00,meteohub,2013-01-11 05:56:00,
2013-01-11 01:01:00,35.4,30.6,29.35,East,90,2.0,4.0,82,-99.99,,,0.00,meteohub,2013-01-11 06:01:00,
2013-01-11 01:06:00,35.4,30.6,29.35,NNW,338,2.0,5.0,82,-99.99,,,0.00,meteohub,2013-01-11 06:06:00,
2013-01-11 01:11:00,35.2,30.6,29.35,ESE,112,3.0,5.0,83,-99.99,,,0.00,meteohub,2013-01-11 06:11:00,
2013-01-11 01:16:00,35.1,30.7,29.32,East,90,2.0,5.0,84,-99.99,,,0.00,meteohub,2013-01-11 06:16:00,
2013-01-11 01:22:00,34.9,30.6,29.32,SE,135,3.0,3.0,84,-99.99,,,0.00,meteohub,2013-01-11 06:22:00,
2013-01-11 01:27:00,34.9,31.1,29.32,SE,135,2.0,5.0,86,-99.99,,,0.00,meteohub,2013-01-11 06:27:00,
2013-01-11 01:32:00,34.9,31.1,29.32,ESE,112,3.0,5.0,86,-99.99,,,0.00,meteohub,2013-01-11 06:32:00,
2013-01-11 01:37:00,34.7,31.3,29.32,East,90,3.0,5.0,87,-99.99,,,0.00,meteohub,2013-01-11 06:37:00,
2013-01-11 01:42:00,34.7,31.5,29.32,East,90,4.0,4.0,88,-99.99,,,0.00,meteohub,2013-01-11 06:42:00,
2013-01-11 01:47:00,34.7,31.5,29.29,ESE,112,1.0,5.0,88,-99.99,,,0.00,meteohub,2013-01-11 06:47:00,
2013-01-11 01:52:00,34.7,31.8,29.29,East,90,3.0,5.0,89,-99.99,,,0.00,meteohub,2013-01-11 06:52:00,
2013-01-11 01:57:00,34.7,31.8,29.29,East,90,2.0,5.0,89,-99.99,,,0.00,meteohub,2013-01-11 06:57:00,
2013-01-11 02:03:00,34.7,32.0,29.29,NE,45,2.0,5.0,90,-99.99,,,0.00,meteohub,2013-01-11 07:03:00,
2013-01-11 02:08:00,34.7,32.0,29.29,East,90,4.0,5.0,90,-99.99,,,0.00,meteohub,2013-01-11 07:08:00,
2013-01-11 02:13:00,34.7,32.4,29.29,East,90,3.0,5.0,91,-99.99,,,0.00,meteohub,2013-01-11 07:13:00,
2013-01-11 02:18:00,34.7,32.5,29.29,East,90,3.0,6.0,92,-99.99,,,0.00,meteohub,2013-01-11 07:18:00,
2013-01-11 02:23:00,34.9,32.7,29.29,East,90,4.0,6.0,92,-99.99,,,0.00,meteohub,2013-01-11 07:23:00,
2013-01-11 02:28:00,34.9,32.7,29.29,SSE,158,4.0,6.0,92,-99.99,,,0.00,meteohub,2013-01-11 07:28:00,
2013-01-11 02:33:00,34.9,32.7,29.29,East,90,2.0,6.0,92,-99.99,,,0.00,meteohub,2013-01-11 07:33:00,
2013-01-11 02:38:00,34.9,32.7,29.29,East,90,3.0,6.0,92,-99.99,,,0.00,meteohub,2013-01-11 07:38:00,
2013-01-11 02:44:00,34.9,32.7,29.29,East,90,2.0,6.0,92,-99.99,,,0.00,meteohub,2013-01-11 07:44:00,
2013-01-11 02:49:00,34.9,32.7,29.26,ENE,68,3.0,6.0,92,-99.99,,,0.00,meteohub,2013-01-11 07:49:00,
2013-01-11 02:54:00,34.9,32.7,29.26,East,90,2.0,6.0,92,-99.99,,,0.00,meteohub,2013-01-11 07:54:00,
2013-01-11 02:59:00,34.9,32.7,29.26,SSE,158,1.0,6.0,92,-99.99,,,0.00,meteohub,2013-01-11 07:59:00,
2013-01-11 03:04:00,34.9,32.7,29.29,ENE,68,3.0,6.0,92,-99.99,,,0.00,meteohub,2013-01-11 08:04:00,
2013-01-11 03:09:00,34.9,33.1,29.29,East,90,2.0,5.0,93,-99.99,,,0.00,meteohub,2013-01-11 08:09:00,
2013-01-11 03:14:00,34.9,33.1,29.26,East,90,3.0,5.0,93,-99.99,,,0.00,meteohub,2013-01-11 08:14:00,
2013-01-11 03:19:00,34.9,33.1,29.26,East,90,2.0,5.0,93,-99.99,,,0.00,meteohub,2013-01-11 08:19:00,
2013-01-11 03:24:00,34.9,33.1,29.26,SE,135,3.0,4.0,93,-99.99,,,0.00,meteohub,2013-01-11 08:24:00,
2013-01-11 03:29:00,34.9,33.1,29.26,East,90,2.0,4.0,93,-99.99,,,0.00,meteohub,2013-01-11 08:29:00,
2013-01-11 03:34:00,34.9,33.1,29.26,NE,45,3.0,5.0,93,-99.99,,,0.00,meteohub,2013-01-11 08:34:00,
2013-01-11 03:39:00,34.9,33.1,29.26,NE,45,0.0,5.0,93,-99.99,,,0.00,meteohub,2013-01-11 08:39:00,
2013-01-11 03:44:00,34.9,33.3,29.23,ENE,68,2.0,6.0,94,-99.99,,,0.00,meteohub,2013-01-11 08:44:00,
2013-01-11 03:50:00,34.9,33.3,29.23,East,90,3.0,6.0,94,-99.99,,,0.00,meteohub,2013-01-11 08:50:00,
2013-01-11 03:55:00,34.9,33.3,29.23,ENE,68,2.0,6.0,94,-99.99,,,0.00,meteohub,2013-01-11 08:55:00,
2013-01-11 04:00:00,34.9,33.3,29.23,East,90,1.0,4.0,94,-99.99,,,0.00,meteohub,2013-01-11 09:00:00,
2013-01-11 04:05:00,34.9,33.6,29.23,East,90,1.0,4.0,95,-99.99,,,0.00,meteohub,2013-01-11 09:05:00,
2013-01-11 04:10:00,34.9,33.6,29.23,East,90,2.0,4.0,95,-99.99,,,0.00,meteohub,2013-01-11 09:10:00,
2013-01-11 04:15:00,34.9,33.6,29.23,ENE,68,1.0,4.0,95,-99.99,,,0.00,meteohub,2013-01-11 09:15:00,
2013-01-11 04:20:00,34.9,33.6,29.23,ENE,68,2.0,4.0,95,-99.99,,,0.00,meteohub,2013-01-11 09:20:00,
2013-01-11 04:25:00,34.9,33.6,29.23,ENE,68,1.0,5.0,95,-99.99,,,0.00,meteohub,2013-01-11 09:25:00,
2013-01-11 04:30:00,34.9,33.8,29.18,East,90,3.0,5.0,96,-99.99,,,0.00,meteohub,2013-01-11 09:30:00,
2013-01-11 04:35:00,35.1,34.0,29.18,ENE,68,1.0,5.0,96,-99.99,,,0.00,meteohub,2013-01-11 09:35:00,
2013-01-11 04:40:00,35.1,34.0,29.18,East,90,3.0,4.0,96,-99.99,,,0.00,meteohub,2013-01-11 09:40:00,
2013-01-11 04:45:00,35.1,34.0,29.18,East,90,1.0,4.0,96,-99.99,,,0.00,meteohub,2013-01-11 09:45:00,
2013-01-11 04:50:00,35.1,34.0,29.18,ENE,68,1.0,4.0,96,-99.99,,,0.00,meteohub,2013-01-11 09:50:00,
2013-01-11 04:56:00,35.1,34.3,29.18,ESE,112,3.0,4.0,97,-99.99,,,0.00,meteohub,2013-01-11 09:56:00,
2013-01-11 05:01:00,35.2,34.5,29.18,East,90,2.0,3.0,97,-99.99,,,0.00,meteohub,2013-01-11 10:01:00,
2013-01-11 05:06:00,35.2,34.5,29.18,ENE,68,4.0,4.0,97,-99.99,,,0.00,meteohub,2013-01-11 10:06:00,
2013-01-11 05:11:00,35.2,34.5,29.18,East,90,2.0,4.0,97,-99.99,,,0.00,meteohub,2013-01-11 10:11:00,
2013-01-11 05:16:00,35.4,34.7,29.18,SSE,158,2.0,4.0,97,-99.99,,,0.00,meteohub,2013-01-11 10:16:00,
2013-01-11 05:21:00,35.4,34.7,29.18,East,90,3.0,4.0,97,-99.99,,,0.00,meteohub,2013-01-11 10:21:00,
2013-01-11 05:26:00,35.4,34.7,29.18,East,90,2.0,4.0,97,-99.99,,,0.00,meteohub,2013-01-11 10:26:00,
2013-01-11 05:32:00,35.4,34.7,29.15,East,90,2.0,4.0,97,-99.99,,,0.00,meteohub,2013-01-11 10:32:00,
2013-01-11 05:37:00,35.4,34.7,29.15,East,90,3.0,3.0,97,-99.99,,,0.00,meteohub,2013-01-11 10:37:00,
2013-01-11 05:42:00,35.4,34.7,29.15,ESE,112,0.0,3.0,97,-99.99,,,0.00,meteohub,2013-01-11 10:42:00,
2013-01-11 05:47:00,35.4,34.7,29.15,East,90,2.0,4.0,97,-99.99,,,0.00,meteohub,2013-01-11 10:47:00,
2013-01-11 05:52:00,35.4,34.7,29.15,SSW,202,2.0,4.0,97,-99.99,,,0.00,meteohub,2013-01-11 10:52:00,
2013-01-11 05:57:00,35.6,34.5,29.15,East,90,2.0,3.0,96,-99.99,,,0.00,meteohub,2013-01-11 10:57:00,
2013-01-11 06:02:00,35.6,34.5,29.15,East,90,2.0,3.0,96,-99.99,,,0.00,meteohub,2013-01-11 11:02:00,
2013-01-11 06:07:00,35.6,34.5,29.15,ENE,68,2.0,3.0,96,-99.99,,,0.00,meteohub,2013-01-11 11:07:00,
2013-01-11 06:12:00,35.6,34.5,29.15,East,90,1.0,4.0,96,-99.99,,,0.00,meteohub,2013-01-11 11:12:00,
2013-01-11 06:17:00,35.6,34.5,29.12,East,90,3.0,4.0,96,-99.99,,,0.00,meteohub,2013-01-11 11:17:00,
2013-01-11 06:22:00,35.6,34.5,29.12,SE,135,3.0,4.0,96,-99.99,,,0.00,meteohub,2013-01-11 11:22:00,
2013-01-11 06:27:00,35.6,34.9,29.12,ESE,112,3.0,4.0,97,-99.99,,,0.00,meteohub,2013-01-11 11:27:00,
2013-01-11 06:32:00,35.6,34.9,29.12,ENE,68,2.0,4.0,97,-99.99,,,0.00,meteohub,2013-01-11 11:32:00,
2013-01-11 06:37:00,35.6,34.9,29.12,East,90,1.0,4.0,97,-99.99,,,0.00,meteohub,2013-01-11 11:37:00,
2013-01-11 06:42:00,35.6,34.9,29.12,NE,45,1.0,4.0,97,-99.99,,,0.00,meteohub,2013-01-11 11:42:00,
2013-01-11 06:47:00,35.6,34.9,29.12,East,90,1.0,4.0,97,-99.99,,,0.00,meteohub,2013-01-11 11:47:00,
2013-01-11 06:52:00,35.6,34.9,29.12,East,90,3.0,4.0,97,-99.99,,,0.00,meteohub,2013-01-11 11:52:00,
2013-01-11 06:57:00,35.6,34.9,29.12,ESE,112,3.0,4.0,97,-99.99,,,0.00,meteohub,2013-01-11 11:57:00,
2013-01-11 07:02:00,35.6,34.9,29.12,ENE,68,1.0,4.0,97,-99.99,,,0.00,meteohub,2013-01-11 12:02:00,
2013-01-11 07:07:00,35.8,35.2,29.12,ENE,68,3.0,4.0,98,-99.99,,,0.00,meteohub,2013-01-11 12:07:00,
2013-01-11 07:12:00,35.8,35.2,29.12,SE,135,2.0,3.0,98,-99.99,,,0.00,meteohub,2013-01-11 12:12:00,
2013-01-11 07:17:00,35.8,35.2,29.09,East,90,1.0,3.0,98,-99.99,,,0.00,meteohub,2013-01-11 12:17:00,
2013-01-11 07:22:00,35.8,35.2,29.09,East,90,2.0,3.0,98,-99.99,,,0.00,meteohub,2013-01-11 12:22:00,
2013-01-11 07:27:00,35.8,35.2,29.09,East,90,2.0,3.0,98,-99.99,,,0.00,meteohub,2013-01-11 12:27:00,
2013-01-11 07:32:00,35.8,35.2,29.12,East,90,1.0,3.0,98,-99.99,,,0.00,meteohub,2013-01-11 12:32:00,
2013-01-11 07:37:00,35.8,35.2,29.12,ENE,68,1.0,3.0,98,-99.99,,,0.00,meteohub,2013-01-11 12:37:00,
2013-01-11 07:42:00,35.8,35.2,29.12,ESE,112,3.0,3.0,98,-99.99,,,0.00,meteohub,2013-01-11 12:42:00,
2013-01-11 07:47:00,36.0,35.4,29.12,ESE,112,1.0,3.0,98,-99.99,,,0.00,meteohub,2013-01-11 12:47:00,
2013-01-11 07:52:00,36.0,35.4,29.12,East,90,2.0,3.0,98,-99.99,,,0.00,meteohub,2013-01-11 12:52:00,
2013-01-11 07:57:00,36.1,35.6,29.12,East,90,2.0,3.0,98,-99.99,,,0.00,meteohub,2013-01-11 12:57:00,
2013-01-11 08:02:00,36.1,35.6,29.15,East,90,1.0,3.0,98,-99.99,,,0.00,meteohub,2013-01-11 13:02:00,
2013-01-11 08:07:00,36.1,35.6,29.15,ESE,112,3.0,3.0,98,-99.99,,,0.00,meteohub,2013-01-11 13:07:00,
2013-01-11 08:12:00,36.3,35.8,29.15,SE,135,2.0,3.0,98,-99.99,,,0.00,meteohub,2013-01-11 13:12:00,
2013-01-11 08:17:00,36.3,35.8,29.12,East,90,1.0,4.0,98,-99.99,,,0.00,meteohub,2013-01-11 13:17:00,
2013-01-11 08:22:00,36.3,35.8,29.12,East,90,2.0,4.0,98,-99.99,,,0.00,meteohub,2013-01-11 13:22:00,
2013-01-11 08:27:00,36.3,35.8,29.12,East,90,1.0,3.0,98,-99.99,,,0.00,meteohub,2013-01-11 13:27:00,
2013-01-11 08:32:00,36.3,35.8,29.06,East,90,0.0,2.0,98,-99.99,,,0.00,meteohub,2013-01-11 13:32:00,
2013-01-11 08:37:00,36.5,36.0,29.06,East,90,3.0,3.0,98,0.00,,,0.00,meteohub,2013-01-11 13:37:00,
2013-01-11 08:42:00,36.5,36.0,29.06,East,90,3.0,3.0,98,0.00,,,0.00,meteohub,2013-01-11 13:42:00,
2013-01-11 08:47:00,36.5,36.0,29.06,SE,135,1.0,3.0,98,0.00,,,0.00,meteohub,2013-01-11 13:47:00,
2013-01-11 08:52:00,36.7,36.1,29.06,East,90,1.0,3.0,98,0.00,,,0.00,meteohub,2013-01-11 13:52:00,
2013-01-11 08:57:00,36.7,36.1,29.06,East,90,3.0,5.0,98,0.00,,,0.00,meteohub,2013-01-11 13:57:00,
2013-01-11 09:02:00,36.7,36.1,29.06,SSE,158,0.0,5.0,98,0.00,,,0.00,meteohub,2013-01-11 14:02:00,
2013-01-11 09:07:00,36.9,36.3,29.06,East,90,1.0,5.0,98,0.00,,,0.00,meteohub,2013-01-11 14:07:00,
2013-01-11 09:12:00,36.9,36.3,29.06,ENE,68,2.0,3.0,98,0.00,,,0.00,meteohub,2013-01-11 14:12:00,
2013-01-11 09:17:00,36.9,36.3,29.03,East,90,3.0,3.0,98,0.00,,,0.00,meteohub,2013-01-11 14:17:00,
2013-01-11 09:22:00,37.0,36.5,29.03,East,90,2.0,3.0,98,0.00,,,0.00,meteohub,2013-01-11 14:22:00,
2013-01-11 09:27:00,37.0,36.5,29.03,ENE,68,2.0,3.0,98,0.00,,,0.00,meteohub,2013-01-11 14:27:00,
2013-01-11 09:32:00,37.2,36.7,29.03,East,90,2.0,3.0,98,0.00,,,0.00,meteohub,2013-01-11 14:32:00,
2013-01-11 09:37:00,37.4,36.9,29.03,East,90,2.0,3.0,98,0.00,,,0.00,meteohub,2013-01-11 14:37:00,
2013-01-11 09:42:00,37.6,37.0,29.03,ESE,112,1.0,3.0,98,0.00,,,0.00,meteohub,2013-01-11 14:42:00,
2013-01-11 09:47:00,37.6,37.0,28.97,East,90,1.0,3.0,98,0.00,,,0.00,meteohub,2013-01-11 14:47:00,
2013-01-11 09:52:00,37.9,37.4,28.97,ESE,112,3.0,3.0,98,0.00,,,0.00,meteohub,2013-01-11 14:52:00,
2013-01-11 09:57:00,38.1,37.6,28.97,East,90,3.0,4.0,98,0.00,,,0.00,meteohub,2013-01-11 14:57:00,
2013-01-11 10:02:00,38.3,37.8,28.94,East,90,3.0,4.0,98,0.00,,,0.00,meteohub,2013-01-11 15:02:00,
2013-01-11 10:07:00,38.7,38.1,28.94,SW,225,0.0,4.0,98,0.00,,,0.00,meteohub,2013-01-11 15:07:00,
2013-01-11 10:12:00,39.0,38.5,28.94,SW,225,1.0,4.0,98,0.00,,,0.00,meteohub,2013-01-11 15:12:00,
2013-01-11 10:17:00,39.2,38.7,29.00,SW,225,0.0,3.0,98,0.00,,,0.00,meteohub,2013-01-11 15:17:00,
2013-01-11 10:22:00,39.4,38.8,29.00,SW,225,0.0,2.0,98,0.00,,,0.00,meteohub,2013-01-11 15:22:00,
2013-01-11 10:27:00,39.4,38.8,29.00,SW,225,0.0,1.0,98,0.00,,,0.00,meteohub,2013-01-11 15:27:00,
2013-01-11 10:32:00,39.6,39.0,28.97,SW,225,0.0,0.0,98,0.00,,,0.00,meteohub,2013-01-11 15:32:00,
2013-01-11 10:37:00,39.6,39.0,28.97,SW,225,0.0,0.0,98,0.00,,,0.00,meteohub,2013-01-11 15:37:00,
2013-01-11 10:42:00,39.7,39.2,28.97,SW,225,0.0,0.0,98,0.00,,,0.00,meteohub,2013-01-11 15:42:00,
2013-01-11 10:47:00,39.7,39.2,29.00,WSW,248,0.0,0.0,98,0.00,,,0.00,meteohub,2013-01-11 15:47:00,
2013-01-11 10:52:00,40.1,39.6,29.00,WSW,248,0.0,1.0,98,0.00,,,0.00,meteohub,2013-01-11 15:52:00,
2013-01-11 10:57:00,40.5,39.9,29.00,WSW,248,0.0,1.0,98,0.00,,,0.00,meteohub,2013-01-11 15:57:00,
2013-01-11 11:02:00,40.5,39.9,28.97,WSW,248,2.0,2.0,98,0.00,,,0.00,meteohub,2013-01-11 16:02:00,
2013-01-11 11:07:00,40.3,39.7,28.97,WSW,248,1.0,4.0,98,0.00,,,0.00,meteohub,2013-01-11 16:07:00,
2013-01-11 11:12:00,40.5,39.9,28.97,SW,225,0.0,4.0,98,0.00,,,0.00,meteohub,2013-01-11 16:12:00,
2013-01-11 11:17:00,41.0,40.5,29.03,SW,225,2.0,4.0,98,0.00,,,0.00,meteohub,2013-01-11 16:17:00,
2013-01-11 11:22:00,42.1,41.5,29.03,East,90,1.0,3.0,98,0.00,,,0.00,meteohub,2013-01-11 16:22:00,
2013-01-11 11:27:00,43.9,43.3,29.03,NE,45,2.0,5.0,98,0.00,,,0.00,meteohub,2013-01-11 16:27:00,
2013-01-11 11:32:00,44.8,44.2,29.00,WSW,248,2.0,5.0,98,0.00,,,0.00,meteohub,2013-01-11 16:32:00,
2013-01-11 11:37:00,45.3,44.8,29.00,WNW,292,1.0,5.0,98,0.00,,,0.00,meteohub,2013-01-11 16:37:00,
2013-01-11 11:42:00,45.9,45.3,29.00,East,90,2.0,5.0,98,0.00,,,0.00,meteohub,2013-01-11 16:42:00,
2013-01-11 11:47:00,46.2,45.7,29.00,South,180,0.0,5.0,98,0.00,,,0.00,meteohub,2013-01-11 16:47:00,
2013-01-11 11:52:00,46.4,45.9,29.00,SW,225,2.0,3.0,98,0.00,,,0.00,meteohub,2013-01-11 16:52:00,
2013-01-11 11:57:00,46.6,46.0,29.00,ESE,112,0.0,2.0,98,0.00,,,0.00,meteohub,2013-01-11 16:57:00,
2013-01-11 12:02:00,46.8,46.2,29.00,SW,225,1.0,3.0,98,0.00,,,0.00,meteohub,2013-01-11 17:02:00,
2013-01-11 12:07:00,46.9,46.4,29.00,SW,225,1.0,3.0,98,0.00,,,0.00,meteohub,2013-01-11 17:07:00,
2013-01-11 12:12:00,46.8,46.2,29.00,West,270,0.0,4.0,98,0.00,,,0.00,meteohub,2013-01-11 17:12:00,
2013-01-11 12:17:00,47.1,46.6,29.00,WSW,248,2.0,4.0,98,0.00,,,0.00,meteohub,2013-01-11 17:17:00,
2013-01-11 12:22:00,47.3,46.8,29.00,SSW,202,1.0,4.0,98,0.00,,,0.00,meteohub,2013-01-11 17:22:00,
2013-01-11 12:27:00,47.3,46.8,29.00,ESE,112,0.0,4.0,98,0.00,,,0.00,meteohub,2013-01-11 17:27:00,
2013-01-11 12:32:00,47.5,46.9,28.97,SW,225,1.0,4.0,98,0.00,,,0.00,meteohub,2013-01-11 17:32:00,
2013-01-11 12:37:00,47.7,47.1,28.97,WSW,248,2.0,4.0,98,0.00,,,0.00,meteohub,2013-01-11 17:37:00,
2013-01-11 12:42:00,48.0,47.5,28.97,SW,225,1.0,4.0,98,0.00,,,0.00,meteohub,2013-01-11 17:42:00,
2013-01-11 12:47:00,48.2,47.7,28.94,South,180,3.0,4.0,98,0.00,,,0.00,meteohub,2013-01-11 17:47:00,
2013-01-11 12:52:00,48.6,48.0,28.94,SE,135,2.0,6.0,98,0.00,,,0.00,meteohub,2013-01-11 17:52:00,
2013-01-11 12:57:00,48.7,48.2,28.94,SSW,202,4.0,6.0,98,0.00,,,0.00,meteohub,2013-01-11 17:57:00,
2013-01-11 13:02:00,49.1,48.6,28.94,SW,225,3.0,6.0,98,0.00,,,0.00,meteohub,2013-01-11 18:02:00,
2013-01-11 13:07:00,49.3,48.7,28.94,SSW,202,6.0,6.0,98,0.00,,,0.00,meteohub,2013-01-11 18:07:00,
2013-01-11 13:12:00,49.5,48.9,28.94,SSW,202,3.0,6.0,98,0.00,,,0.00,meteohub,2013-01-11 18:12:00,
2013-01-11 13:17:00,49.5,48.9,28.91,WSW,248,5.0,6.0,98,0.00,,,0.00,meteohub,2013-01-11 18:17:00,
2013-01-11 13:22:00,49.6,49.1,28.91,West,270,5.0,6.0,98,0.00,,,0.00,meteohub,2013-01-11 18:22:00,
2013-01-11 13:27:00,49.6,49.1,28.91,WSW,248,3.0,7.0,98,0.00,,,0.00,meteohub,2013-01-11 18:27:00,
2013-01-11 13:32:00,49.6,49.1,28.94,WSW,248,4.0,8.0,98,0.00,,,0.00,meteohub,2013-01-11 18:32:00,
2013-01-11 13:37:00,49.6,49.1,28.94,SW,225,2.0,8.0,98,0.00,,,0.00,meteohub,2013-01-11 18:37:00,
2013-01-11 13:42:00,49.8,49.3,28.94,WSW,248,2.0,8.0,98,0.00,,,0.00,meteohub,2013-01-11 18:42:00,
2013-01-11 13:47:00,50.0,49.5,28.94,East,90,3.0,8.0,98,0.00,,,0.00,meteohub,2013-01-11 18:47:00,
2013-01-11 13:52:00,50.2,49.6,28.94,WSW,248,3.0,7.0,98,0.00,,,0.00,meteohub,2013-01-11 18:52:00,
2013-01-11 13:57:00,50.4,49.8,28.94,SSW,202,4.0,7.0,98,0.00,,,0.00,meteohub,2013-01-11 18:57:00,
2013-01-11 14:02:00,50.4,49.8,28.94,SW,225,4.0,7.0,98,0.00,,,0.00,meteohub,2013-01-11 19:02:00,
2013-01-11 14:07:00,50.4,49.8,28.94,WSW,248,6.0,6.0,98,0.00,,,0.00,meteohub,2013-01-11 19:07:00,
2013-01-11 14:12:00,50.4,49.8,28.94,SW,225,4.0,6.0,98,0.00,,,0.00,meteohub,2013-01-11 19:12:00,
2013-01-11 14:17:00,50.5,50.0,28.94,WSW,248,4.0,6.0,98,0.00,,,0.00,meteohub,2013-01-11 19:17:00,
2013-01-11 14:22:00,50.5,50.0,28.94,SSW,202,3.0,8.0,98,0.00,,,0.00,meteohub,2013-01-11 19:22:00,
2013-01-11 14:27:00,50.7,50.2,28.94,SW,225,4.0,8.0,98,0.00,,,0.00,meteohub,2013-01-11 19:27:00,
2013-01-11 14:32:00,50.9,50.4,28.97,West,270,4.0,8.0,98,0.00,,,0.00,meteohub,2013-01-11 19:32:00,
2013-01-11 14:37:00,50.9,50.4,28.97,West,270,5.0,6.0,98,0.00,,,0.00,meteohub,2013-01-11 19:37:00,
2013-01-11 14:42:00,51.3,50.7,28.97,WSW,248,4.0,6.0,98,0.00,,,0.00,meteohub,2013-01-11 19:42:00,
2013-01-11 14:47:00,51.6,51.1,28.97,WSW,248,4.0,6.0,98,0.00,,,0.00,meteohub,2013-01-11 19:47:00,
2013-01-11 14:52:00,52.0,51.4,28.97,SW,225,8.0,8.0,98,0.00,,,0.00,meteohub,2013-01-11 19:52:00,
2013-01-11 14:57:00,52.0,51.4,28.97,SSW,202,6.0,8.0,98,0.00,,,0.00,meteohub,2013-01-11 19:57:00,
2013-01-11 15:03:00,52.9,50.9,28.97,SW,225,4.0,8.0,93,0.00,,,0.00,meteohub,2013-01-11 20:03:00,
2013-01-11 15:08:00,52.9,50.9,28.97,WSW,248,4.0,8.0,93,0.00,,,0.00,meteohub,2013-01-11 20:08:00,
2013-01-11 15:13:00,54.5,51.3,28.97,West,270,4.0,6.0,89,0.00,,,0.00,meteohub,2013-01-11 20:13:00,
2013-01-11 15:18:00,56.1,51.1,28.97,SW,225,6.0,8.0,83,0.00,,,0.00,meteohub,2013-01-11 20:18:00,
2013-01-11 15:23:00,56.7,50.5,28.97,SW,225,3.0,8.0,80,0.00,,,0.00,meteohub,2013-01-11 20:23:00,
2013-01-11 15:28:00,57.2,49.3,28.97,SSW,202,6.0,8.0,75,0.00,,,0.00,meteohub,2013-01-11 20:28:00,
2013-01-11 15:33:00,57.2,48.9,28.97,SW,225,3.0,7.0,74,0.00,,,0.00,meteohub,2013-01-11 20:33:00,
2013-01-11 15:38:00,56.3,48.2,28.97,SW,225,6.0,6.0,74,0.00,,,0.00,meteohub,2013-01-11 20:38:00,
2013-01-11 15:43:00,55.2,47.5,28.97,NW,315,5.0,6.0,75,0.00,,,0.00,meteohub,2013-01-11 20:43:00,
2013-01-11 15:48:00,55.2,48.2,28.97,WSW,248,4.0,6.0,77,0.00,,,0.00,meteohub,2013-01-11 20:48:00,
2013-01-11 15:53:00,55.2,48.2,28.97,SW,225,4.0,6.0,77,0.00,,,0.00,meteohub,2013-01-11 20:53:00,
2013-01-11 15:58:00,55.2,48.2,28.97,South,180,3.0,6.0,77,0.00,,,0.00,meteohub,2013-01-11 20:58:00,
2013-01-11 16:03:00,55.2,48.2,28.97,SW,225,3.0,6.0,77,0.00,,,0.00,meteohub,2013-01-11 21:03:00,
2013-01-11 16:09:00,54.9,47.8,28.97,WSW,248,2.0,4.0,77,0.00,,,0.00,meteohub,2013-01-11 21:09:00,
2013-01-11 16:14:00,54.9,47.8,29.00,SW,225,4.0,4.0,77,0.00,,,0.00,meteohub,2013-01-11 21:14:00,
2013-01-11 16:19:00,54.7,47.7,29.00,WSW,248,2.0,4.0,77,0.00,,,0.00,meteohub,2013-01-11 21:19:00,
2013-01-11 16:24:00,54.7,47.7,29.00,WSW,248,2.0,4.0,77,0.00,,,0.00,meteohub,2013-01-11 21:24:00,
2013-01-11 16:33:00,54.7,46.9,29.00,WSW,248,2.0,-999.0,75,0.00,,,0.00,meteohub,2013-01-11 21:33:00,
2013-01-11 16:38:00,54.7,46.9,-100.00,WSW,248,2.0,3.0,75,0.00,,,0.00,meteohub,2013-01-11 21:38:00,
2013-01-11 16:44:00,54.5,46.4,29.00,WSW,248,5.0,5.0,74,0.00,,,0.00,meteohub,2013-01-11 21:44:00,
2013-01-11 16:49:00,54.5,46.4,29.00,WNW,292,4.0,4.0,74,0.00,,,0.00,meteohub,2013-01-11 21:49:00,
2013-01-11 16:54:00,54.3,46.6,29.00,SW,225,3.0,6.0,75,0.00,,,0.00,meteohub,2013-01-11 21:54:00,
2013-01-11 16:59:00,54.1,46.4,28.97,West,270,4.0,6.0,75,0.00,,,0.00,meteohub,2013-01-11 21:59:00,
2013-01-11 17:04:00,54.1,46.4,28.97,SSW,202,4.0,6.0,75,0.00,,,0.00,meteohub,2013-01-11 22:04:00,
2013-01-11 17:10:00,54.0,45.9,28.97,SW,225,6.0,6.0,74,0.00,,,0.00,meteohub,2013-01-11 22:10:00,
2013-01-11 17:15:00,54.0,45.9,28.97,SW,225,6.0,7.0,74,0.00,,,0.00,meteohub,2013-01-11 22:15:00,
2013-01-11 17:20:00,53.8,45.7,29.00,WSW,248,5.0,7.0,74,0.00,,,0.00,meteohub,2013-01-11 22:20:00,
2013-01-11 17:25:00,53.8,45.3,29.00,WNW,292,4.0,8.0,73,0.00,,,0.00,meteohub,2013-01-11 22:25:00,
2013-01-11 17:30:00,53.6,44.8,29.00,East,90,4.0,8.0,72,0.00,,,0.00,meteohub,2013-01-11 22:30:00,
2013-01-11 17:35:00,53.6,44.8,29.00,SSW,202,6.0,8.0,72,0.00,,,0.00,meteohub,2013-01-11 22:35:00,
2013-01-11 17:40:00,53.2,44.4,29.00,West,270,2.0,7.0,72,0.00,,,0.00,meteohub,2013-01-11 22:40:00,
2013-01-11 17:45:00,52.9,44.4,29.00,SSW,202,4.0,7.0,73,0.00,,,0.00,meteohub,2013-01-11 22:45:00,
2013-01-11 17:50:00,52.7,44.2,29.00,SSW,202,4.0,6.0,73,0.00,,,0.00,meteohub,2013-01-11 22:50:00,
2013-01-11 17:55:00,52.5,44.1,29.00,West,270,2.0,6.0,73,0.00,,,0.00,meteohub,2013-01-11 22:55:00,
2013-01-11 18:00:00,52.2,43.7,29.03,South,180,3.0,6.0,73,0.00,,,0.00,meteohub,2013-01-11 23:00:00,
2013-01-11 18:05:00,52.0,43.7,29.03,SSW,202,2.0,6.0,73,0.00,,,0.00,meteohub,2013-01-11 23:05:00,
2013-01-11 18:11:00,51.6,43.7,29.03,WSW,248,2.0,5.0,74,0.00,,,0.00,meteohub,2013-01-11 23:11:00,
2013-01-11 18:16:00,51.6,43.7,29.03,WSW,248,3.0,5.0,74,0.00,,,0.00,meteohub,2013-01-11 23:16:00,
2013-01-11 18:21:00,51.4,43.5,29.03,NW,315,3.0,4.0,74,0.00,,,0.00,meteohub,2013-01-11 23:21:00,
2013-01-11 18:26:00,51.4,43.5,29.03,SW,225,4.0,5.0,74,0.00,,,0.00,meteohub,2013-01-11 23:26:00,
2013-01-11 18:31:00,51.3,43.3,29.03,SSW,202,3.0,5.0,74,0.00,,,0.00,meteohub,2013-01-11 23:31:00,
2013-01-11 18:36:00,51.3,43.0,29.03,West,270,3.0,5.0,73,0.00,,,0.00,meteohub,2013-01-11 23:36:00,
2013-01-11 18:41:00,51.3,43.0,29.03,SSW,202,6.0,6.0,73,0.00,,,0.00,meteohub,2013-01-11 23:41:00,
2013-01-11 18:46:00,51.1,42.8,29.06,WSW,248,3.0,6.0,73,0.00,,,0.00,meteohub,2013-01-11 23:46:00,
2013-01-11 18:51:00,50.9,42.6,29.06,SW,225,4.0,6.0,73,0.00,,,0.00,meteohub,2013-01-11 23:51:00,
2013-01-11 18:56:00,50.7,42.4,29.06,WSW,248,3.0,6.0,73,0.00,,,0.00,meteohub,2013-01-11 23:56:00,
2013-01-11 19:02:00,50.5,42.3,29.06,WSW,248,3.0,6.0,73,0.00,,,0.00,meteohub,2013-01-12 00:02:00,
2013-01-11 19:07:00,50.2,42.3,29.06,SW,225,2.0,6.0,74,0.00,,,0.00,meteohub,2013-01-12 00:07:00,
2013-01-11 19:12:00,50.0,42.1,29.06,WSW,248,2.0,6.0,74,0.00,,,0.00,meteohub,2013-01-12 00:12:00,
2013-01-11 19:17:00,50.0,42.4,29.06,SW,225,2.0,4.0,75,0.00,,,0.00,meteohub,2013-01-12 00:17:00,
2013-01-11 19:22:00,49.8,42.6,29.06,West,270,4.0,6.0,76,0.00,,,0.00,meteohub,2013-01-12 00:22:00,
2013-01-11 19:27:00,49.6,42.4,29.06,SW,225,2.0,6.0,76,0.00,,,0.00,meteohub,2013-01-12 00:27:00,
2013-01-11 19:32:00,49.6,42.4,29.06,West,270,0.0,6.0,76,0.00,,,0.00,meteohub,2013-01-12 00:32:00,
2013-01-11 19:37:00,49.3,42.1,29.03,WSW,248,1.0,4.0,76,0.00,,,0.00,meteohub,2013-01-12 00:37:00,
2013-01-11 19:42:00,49.1,41.9,29.03,SSW,202,1.0,4.0,76,0.00,,,0.00,meteohub,2013-01-12 00:42:00,
2013-01-11 19:47:00,48.9,42.1,29.03,SW,225,3.0,4.0,77,0.00,,,0.00,meteohub,2013-01-12 00:47:00,
2013-01-11 19:52:00,49.1,42.6,29.06,SW,225,2.0,4.0,78,0.00,,,0.00,meteohub,2013-01-12 00:52:00,
2013-01-11 19:57:00,49.1,42.6,29.06,South,180,3.0,4.0,78,0.00,,,0.00,meteohub,2013-01-12 00:57:00,
2013-01-11 20:02:00,48.9,42.4,29.06,SW,225,3.0,4.0,78,0.00,,,0.00,meteohub,2013-01-12 01:02:00,
2013-01-11 20:07:00,49.1,42.8,29.06,SW,225,3.0,4.0,79,0.00,,,0.00,meteohub,2013-01-12 01:07:00,
2013-01-11 20:12:00,48.9,42.4,29.06,WSW,248,3.0,5.0,78,0.00,,,0.00,meteohub,2013-01-12 01:12:00,
2013-01-11 20:17:00,48.9,42.6,29.06,SSW,202,2.0,5.0,79,0.00,,,0.00,meteohub,2013-01-12 01:17:00,
2013-01-11 20:22:00,48.9,42.6,29.06,SW,225,3.0,5.0,79,0.00,,,0.00,meteohub,2013-01-12 01:22:00,
2013-01-11 20:27:00,48.9,43.0,29.06,SSW,202,3.0,8.0,80,0.00,,,0.00,meteohub,2013-01-12 01:27:00,
2013-01-11 20:32:00,48.9,42.6,29.06,SW,225,4.0,8.0,79,0.00,,,0.00,meteohub,2013-01-12 01:32:00,
2013-01-11 20:37:00,49.1,43.2,29.06,SSW,202,4.0,8.0,80,0.00,,,0.00,meteohub,2013-01-12 01:37:00,
2013-01-11 20:42:00,49.1,43.2,29.06,WSW,248,4.0,5.0,80,0.00,,,0.00,meteohub,2013-01-12 01:42:00,
2013-01-11 20:47:00,49.1,43.2,29.06,SW,225,3.0,6.0,80,0.00,,,0.00,meteohub,2013-01-12 01:47:00,
2013-01-11 20:52:00,48.9,43.0,29.06,SSW,202,4.0,6.0,80,0.00,,,0.00,meteohub,2013-01-12 01:52:00,
2013-01-11 20:57:00,48.7,42.8,29.06,SW,225,2.0,5.0,80,0.00,,,0.00,meteohub,2013-01-12 01:57:00,
2013-01-11 21:02:00,48.7,43.2,29.06,SW,225,2.0,5.0,81,0.00,,,0.00,meteohub,2013-01-12 02:02:00,
2013-01-11 21:07:00,48.7,43.5,29.06,SW,225,4.0,4.0,82,0.00,,,0.00,meteohub,2013-01-12 02:07:00,
2013-01-11 21:13:00,48.7,43.5,29.06,SSW,202,3.0,5.0,82,0.00,,,0.00,meteohub,2013-01-12 02:13:00,
2013-01-11 21:18:00,48.7,43.5,29.06,WSW,248,3.0,5.0,82,0.00,,,0.00,meteohub,2013-01-12 02:18:00,
2013-01-11 21:23:00,48.7,43.5,29.06,WSW,248,2.0,5.0,82,0.00,,,0.00,meteohub,2013-01-12 02:23:00,
2013-01-11 21:28:00,48.6,43.3,29.06,WSW,248,3.0,4.0,82,0.00,,,0.00,meteohub,2013-01-12 02:28:00,
2013-01-11 21:33:00,48.4,43.5,29.06,SW,225,2.0,4.0,83,0.00,,,0.00,meteohub,2013-01-12 02:33:00,
2013-01-11 21:38:00,48.4,43.5,29.06,SW,225,3.0,4.0,83,0.00,,,0.00,meteohub,2013-01-12 02:38:00,
2013-01-11 21:43:00,48.4,43.7,29.06,SW,225,1.0,4.0,84,0.00,,,0.00,meteohub,2013-01-12 02:43:00,
2013-01-11 21:48:00,48.4,43.7,29.06,SW,225,2.0,4.0,84,0.00,,,0.00,meteohub,2013-01-12 02:48:00,
2013-01-11 21:54:00,48.4,43.7,29.06,SSW,202,0.0,4.0,84,0.00,,,0.00,meteohub,2013-01-12 02:54:00,
2013-01-11 21:59:00,48.2,43.5,29.06,SW,225,1.0,3.0,84,0.00,,,0.00,meteohub,2013-01-12 02:59:00,
2013-01-11 22:04:00,48.2,43.5,29.06,SW,225,1.0,3.0,84,0.00,,,0.00,meteohub,2013-01-12 03:04:00,
2013-01-11 22:09:00,48.4,44.1,29.06,SW,225,3.0,4.0,85,0.00,,,0.00,meteohub,2013-01-12 03:09:00,
2013-01-11 22:14:00,48.4,44.4,29.06,WSW,248,4.0,4.0,86,0.00,,,0.00,meteohub,2013-01-12 03:14:00,
2013-01-11 22:19:00,48.6,44.6,29.03,SW,225,2.0,5.0,86,0.00,,,0.00,meteohub,2013-01-12 03:19:00,
2013-01-11 22:24:00,48.6,44.6,29.03,SE,135,0.0,5.0,86,0.00,,,0.00,meteohub,2013-01-12 03:24:00,
2013-01-11 22:30:00,48.4,44.1,29.03,West,270,1.0,4.0,85,0.00,,,0.00,meteohub,2013-01-12 03:30:00,
2013-01-11 22:35:00,48.2,43.9,29.03,SSW,202,1.0,3.0,85,0.00,,,0.00,meteohub,2013-01-12 03:35:00,
2013-01-11 22:40:00,48.0,43.7,29.03,SSW,202,0.0,3.0,85,0.00,,,0.00,meteohub,2013-01-12 03:40:00,
2013-01-11 22:45:00,48.0,43.7,29.06,SW,225,1.0,3.0,85,0.00,,,0.00,meteohub,2013-01-12 03:45:00,
2013-01-11 22:50:00,48.0,43.7,29.06,SW,225,1.0,3.0,85,0.00,,,0.00,meteohub,2013-01-12 03:50:00,
2013-01-11 22:56:00,48.0,43.7,29.06,SE,135,1.0,4.0,85,0.00,,,0.00,meteohub,2013-01-12 03:56:00,
2013-01-11 23:01:00,48.0,43.7,29.06,SSW,202,3.0,4.0,85,0.00,,,0.00,meteohub,2013-01-12 04:01:00,
2013-01-11 23:06:00,48.0,44.1,29.06,East,90,2.0,4.0,86,0.00,,,0.00,meteohub,2013-01-12 04:06:00,
2013-01-11 23:11:00,48.0,44.1,29.06,SE,135,1.0,4.0,86,0.00,,,0.00,meteohub,2013-01-12 04:11:00,
2013-01-11 23:16:00,47.8,43.5,29.06,SW,225,0.0,3.0,85,0.00,,,0.00,meteohub,2013-01-12 04:16:00,
2013-01-11 23:21:00,47.7,43.3,29.06,South,180,2.0,2.0,85,0.00,,,0.00,meteohub,2013-01-12 04:21:00,
2013-01-11 23:26:00,47.5,43.2,29.06,East,90,0.0,2.0,85,0.00,,,0.00,meteohub,2013-01-12 04:26:00,
2013-01-11 23:31:00,47.5,43.2,29.06,South,180,1.0,2.0,85,0.00,,,0.00,meteohub,2013-01-12 04:31:00,
2013-01-11 23:37:00,47.3,43.0,29.06,South,180,0.0,2.0,85,0.00,,,0.00,meteohub,2013-01-12 04:37:00,
2013-01-11 23:42:00,47.1,42.8,29.06,SSW,202,2.0,2.0,85,0.00,,,0.00,meteohub,2013-01-12 04:42:00,
2013-01-11 23:47:00,47.1,42.8,29.06,NW,315,0.0,2.0,85,0.00,,,0.00,meteohub,2013-01-12 04:47:00,
2013-01-11 23:52:00,47.1,43.2,29.06,North,0,0.0,2.0,86,0.00,,,0.00,meteohub,2013-01-12 04:52:00,
2013-01-11 23:57:00,47.1,43.2,29.06,SSW,202,2.0,2.0,86,0.00,,,0.00,meteohub,2013-01-12 04:57:00,